SXD4AC EGKK-EDDH

Flight info

Callsign SXD4AC
Flight time N/A
Altitude 35000
Route FRANE M604 PAAVO Q295 SOMVA DCT MAVAS DCT TULIP Y12 SPY N873 ANDIK M105 RIBSO RIBSO3P
Aircraft B738/M-SDE2E3FGHIRWXY/LB1

Departure

Time N/A
Airport London Gatwick Airport (EGKK)

Arrival

Time 2026-04-23 18:03
Airport Hamburg Helmut Schmidt Airport (EDDH)
Time Latitude Longitude Altitude Speed Heading
2026-04-23 17:15 52.38290 3.07517 35412 ft 446 kts 79°
2026-04-23 17:16 52.39496 3.17450 35412 ft 440 kts 89°
2026-04-23 17:16 52.39540 3.27404 35416 ft 435 kts 96°
2026-04-23 17:17 52.39113 3.37250 35417 ft 434 kts 98°
2026-04-23 17:17 52.38616 3.47056 35412 ft 435 kts 98°
2026-04-23 17:18 52.37893 3.61845 35406 ft 435 kts 97°
2026-04-23 17:19 52.37427 3.71658 35402 ft 435 kts 98°
2026-04-23 17:19 52.37078 3.81533 35399 ft 436 kts 94°
2026-04-23 17:20 52.37766 3.91463 35398 ft 442 kts 82°
2026-04-23 17:21 52.41077 4.10824 35397 ft 445 kts 77°
2026-04-23 17:21 52.43710 4.25368 35399 ft 445 kts 77°
2026-04-23 17:22 52.46269 4.39949 35398 ft 445 kts 77°
2026-04-23 17:23 52.48795 4.54611 35396 ft 446 kts 77°
2026-04-23 17:24 52.51283 4.69190 35392 ft 445 kts 78°
2026-04-23 17:24 52.54070 4.83749 35389 ft 449 kts 69°
2026-04-23 17:25 52.57301 4.92558 35386 ft 454 kts 57°
2026-04-23 17:25 52.59200 4.96697 35381 ft 455 kts 55°
2026-04-23 17:26 52.67125 5.12927 35380 ft 455 kts 54°
2026-04-23 17:27 52.72906 5.25317 35380 ft 453 kts 59°
2026-04-23 17:27 52.77117 5.32957 35388 ft 462 kts 35°
2026-04-23 17:28 52.82860 5.37888 35381 ft 465 kts 26°
2026-04-23 17:28 52.88737 5.42277 35375 ft 465 kts 26°
2026-04-23 17:29 52.93992 5.48037 35374 ft 455 kts 53°
2026-04-23 17:29 52.96748 5.57320 35381 ft 450 kts 71°
2026-04-23 17:30 52.97467 5.60463 35377 ft 450 kts 71°
2026-04-23 17:30 53.01150 5.76415 35380 ft 449 kts 71°
2026-04-23 17:31 53.03433 5.86043 35381 ft 450 kts 71°
2026-04-23 17:31 53.05746 5.95698 35381 ft 449 kts 70°
2026-04-23 17:32 53.08069 6.05375 35378 ft 450 kts 70°
2026-04-23 17:32 53.10363 6.14952 35374 ft 450 kts 70°
2026-04-23 17:33 53.12677 6.24636 35375 ft 450 kts 70°
2026-04-23 17:33 53.14980 6.34321 35371 ft 449 kts 70°
2026-04-23 17:34 53.17260 6.43949 35371 ft 449 kts 70°
2026-04-23 17:35 53.20272 6.56734 35362 ft 449 kts 70°
2026-04-23 17:35 53.24019 6.72750 35357 ft 449 kts 70°
2026-04-23 17:36 53.26268 6.82420 35347 ft 449 kts 71°
2026-04-23 17:36 53.28530 6.92194 35342 ft 450 kts 70°
2026-04-23 17:37 53.30782 7.01971 35341 ft 450 kts 70°
2026-04-23 17:38 53.34129 7.16584 35345 ft 449 kts 70°
2026-04-23 17:38 53.36362 7.26386 35343 ft 449 kts 70°
2026-04-23 17:39 53.38572 7.36131 35339 ft 450 kts 70°
2026-04-23 17:39 53.40784 7.45931 35140 ft 451 kts 70°
2026-04-23 17:39 53.41904 7.50912 34687 ft 454 kts 70°
2026-04-23 17:40 53.43012 7.55849 34248 ft 458 kts 70°
2026-04-23 17:40 53.44123 7.60819 33856 ft 457 kts 70°
2026-04-23 17:40 53.45217 7.65714 33466 ft 453 kts 70°
2026-04-23 17:40 53.45954 7.69019 33199 ft 449 kts 70°
2026-04-23 17:41 53.47384 7.75445 32668 ft 444 kts 70°
2026-04-23 17:41 53.49545 7.85196 31255 ft 446 kts 70°
2026-04-23 17:41 53.50608 7.90011 30477 ft 447 kts 70°
2026-04-23 17:42 53.52747 7.99733 28871 ft 448 kts 69°
2026-04-23 17:42 53.53810 8.04581 28067 ft 442 kts 69°
2026-04-23 17:42 53.54877 8.09459 27267 ft 435 kts 69°
2026-04-23 17:43 53.55902 8.14158 26486 ft 429 kts 69°
2026-04-23 17:43 53.56923 8.18855 25695 ft 423 kts 69°
2026-04-23 17:43 53.57921 8.23452 24910 ft 417 kts 69°
2026-04-23 17:43 53.58917 8.28050 24149 ft 412 kts 69°
2026-04-23 17:44 53.59890 8.32553 23402 ft 407 kts 69°
2026-04-23 17:44 53.60524 8.35493 22913 ft 404 kts 69°
2026-04-23 17:44 53.62418 8.44303 21421 ft 395 kts 68°
2026-04-23 17:45 53.63656 8.50073 20437 ft 389 kts 68°
2026-04-23 17:45 53.65171 8.57156 19194 ft 382 kts 68°
2026-04-23 17:45 53.66069 8.61363 18456 ft 378 kts 68°
2026-04-23 17:46 53.68090 8.70876 16954 ft 362 kts 68°
2026-04-23 17:46 53.68933 8.74863 16382 ft 355 kts 68°
2026-04-23 17:46 53.69756 8.78761 15821 ft 349 kts 68°
2026-04-23 17:47 53.70561 8.82573 15329 ft 346 kts 67°
2026-04-23 17:47 53.71366 8.86389 14840 ft 345 kts 67°
2026-04-23 17:47 53.72966 8.94005 13955 ft 338 kts 67°
2026-04-23 17:48 53.73481 8.96463 13715 ft 335 kts 67°
2026-04-23 17:48 53.74263 9.00196 13354 ft 336 kts 67°
2026-04-23 17:48 53.75042 9.03916 12986 ft 335 kts 67°
2026-04-23 17:48 53.75818 9.07627 12616 ft 333 kts 66°
2026-04-23 17:49 53.76843 9.12540 12157 ft 331 kts 66°
2026-04-23 17:49 53.77358 9.15017 11940 ft 330 kts 66°
2026-04-23 17:49 53.78125 9.18722 11616 ft 329 kts 66°
2026-04-23 17:49 53.79129 9.23588 11187 ft 326 kts 66°
2026-04-23 17:50 53.79872 9.27205 10861 ft 324 kts 66°
2026-04-23 17:50 53.81093 9.33204 10304 ft 316 kts 67°
2026-04-23 17:50 53.81664 9.36720 10251 ft 303 kts 71°
2026-04-23 17:51 53.82091 9.40116 10244 ft 291 kts 73°
2026-04-23 17:51 53.82599 9.44613 10240 ft 290 kts 73°
2026-04-23 17:51 53.83374 9.51293 10240 ft 289 kts 72°
2026-04-23 17:52 53.83777 9.54664 10241 ft 289 kts 72°
2026-04-23 17:52 53.84448 9.60245 10227 ft 286 kts 72°
2026-04-23 17:52 53.84949 9.64487 10234 ft 265 kts 72°
2026-04-23 17:53 53.85549 9.69522 9946 ft 258 kts 72°
2026-04-23 17:53 53.86026 9.73492 9587 ft 254 kts 72°
2026-04-23 17:53 53.86257 9.75429 9422 ft 252 kts 72°
2026-04-23 17:54 53.86602 9.78368 9171 ft 254 kts 73°
2026-04-23 17:54 53.86698 9.82347 8840 ft 260 kts 89°
2026-04-23 17:54 53.86189 9.88483 8181 ft 263 kts 92°
2026-04-23 17:55 53.85711 9.94596 7429 ft 265 kts 91°
2026-04-23 17:55 53.85562 9.96691 7147 ft 267 kts 90°
2026-04-23 17:55 53.85263 10.00892 6558 ft 267 kts 90°
2026-04-23 17:56 53.85113 10.02972 6275 ft 266 kts 90°
2026-04-23 17:56 53.84670 10.09097 5509 ft 260 kts 90°
2026-04-23 17:56 53.84372 10.13176 4991 ft 257 kts 92°
2026-04-23 17:57 53.84054 10.15117 4719 ft 264 kts 110°
2026-04-23 17:57 53.83058 10.17766 4325 ft 266 kts 123°
2026-04-23 17:57 53.80444 10.23463 3343 ft 259 kts 124°
2026-04-23 17:58 53.79167 10.25635 2987 ft 257 kts 149°
2026-04-23 17:58 53.78064 10.26267 2937 ft 252 kts 176°
2026-04-23 17:58 53.76379 10.25667 2944 ft 244 kts 217°
2026-04-23 17:58 53.74843 10.23069 2950 ft 233 kts 241°
2026-04-23 17:59 53.74197 10.21584 2945 ft 235 kts 240°
2026-04-23 17:59 53.73183 10.19427 2952 ft 235 kts 238°
2026-04-23 17:59 53.72135 10.17299 2758 ft 233 kts 237°
2026-04-23 17:59 53.70768 10.14522 2337 ft 231 kts 237°
2026-04-23 18:00 53.69770 10.12501 2045 ft 213 kts 238°
2026-04-23 18:00 53.69164 10.11279 1821 ft 200 kts 239°
2026-04-23 18:00 53.68321 10.09574 1562 ft 178 kts 238°
2026-04-23 18:00 53.67569 10.08062 1324 ft 160 kts 238°
2026-04-23 18:01 53.66681 10.06252 1055 ft 142 kts 238°
2026-04-23 18:01 53.66076 10.05018 872 ft 134 kts 238°
2026-04-23 18:01 53.65681 10.04203 752 ft 141 kts 238°
2026-04-23 18:01 53.64849 10.02497 467 ft 135 kts 236°
2026-04-23 18:02 53.64458 10.01707 331 ft 129 kts 235°
2026-04-23 18:02 53.63871 10.00525 165 ft 135 kts 235°
2026-04-23 18:02 53.63277 9.99324 64 ft 132 kts 234°
2026-04-23 18:02 53.62788 9.98322 61 ft 81 kts 232°
2026-04-23 18:03 53.62550 9.97840 61 ft 30 kts 229°
2026-04-23 18:03 53.62441 9.97832 61 ft 12 kts 128°
2026-04-23 18:03 53.62435 9.97966 61 ft 13 kts 75°
2026-04-23 18:03 53.62524 9.98217 61 ft 19 kts 50°
2026-04-23 18:04 53.62582 9.98335 61 ft 19 kts 50°
2026-04-23 18:04 53.62664 9.98500 61 ft 17 kts 50°
2026-04-23 18:04 53.62740 9.98654 61 ft 16 kts 50°
2026-04-23 18:04 53.62833 9.98844 61 ft 14 kts 49°
2026-04-23 18:05 53.62875 9.98928 61 ft 13 kts 51°
2026-04-23 18:05 53.62935 9.99049 61 ft 12 kts 50°
2026-04-23 18:05 53.62989 9.99158 61 ft 11 kts 50°
2026-04-23 18:05 53.63036 9.99257 61 ft 10 kts 52°
2026-04-23 18:06 53.63074 9.99341 61 ft 5 kts 56°
2026-04-23 18:06 53.63083 9.99364 61 ft 0 kts 55°
2026-04-23 18:07 53.63092 9.99384 61 ft 7 kts 55°
2026-04-23 18:07 53.63134 9.99485 61 ft 10 kts 53°
2026-04-23 18:07 53.63176 9.99580 61 ft 9 kts 53°
2026-04-23 18:07 53.63247 9.99710 61 ft 16 kts 44°
2026-04-23 18:08 53.63303 9.99813 61 ft 17 kts 51°
2026-04-23 18:08 53.63380 9.99969 61 ft 16 kts 50°
2026-04-23 18:08 53.63428 10.00106 61 ft 12 kts 96°
2026-04-23 18:08 53.63381 10.00218 61 ft 11 kts 152°
2026-04-23 18:09 53.63309 10.00236 61 ft 9 kts 175°
2026-04-23 18:09 53.63235 10.00244 61 ft 11 kts 176°
2026-04-23 18:09 53.63205 10.00270 61 ft 4 kts 91°
2026-04-23 18:09 53.63205 10.00334 61 ft 3 kts 86°
2026-04-23 18:10 53.63206 10.00356 61 ft 0 kts 86°